EW1343 Weather Reports


time (UTC)temp
C
wind
direction
speed
KPH
gust
KPH
rain 1hr
cm
rain 24hr
cm
rain mn
cm
humidity
%
barometer
mb
20260506191548 -17 232 1.6 9.7 0.00 0.00 0.00 1015.3
20260506190044 -17 236 0.0 9.7 0.00 0.00 0.00 1015.3
20260506184540 -17 278 0.0 12.9 0.00 0.00 0.00 1015.1
20260506183036 -17 242 1.6 8.0 0.00 0.00 0.00 1015.2
20260506181531 -17 217 3.2 16.1 0.00 0.00 0.00 1015.2
20260506180027 -17 215 3.2 14.5 0.00 0.00 0.00 1015.1
20260506174522 -17 159 3.2 17.7 0.00 0.00 0.00 1015.0
20260506173016 -17 246 4.8 11.3 0.00 0.00 0.00 1014.9
20260506171513 -17 227 3.2 11.3 0.00 0.00 0.00 1015.0
20260506170008 -17 171 1.6 11.3 0.00 0.00 0.00 1014.9
20260506164505 -17 226 3.2 12.9 0.00 0.00 0.00 1014.9
20260506163121 -17 212 3.2 17.7 0.00 0.00 0.00 1014.9
20260506161602 -17 229 0.0 14.5 0.00 0.00 0.00 1014.8
20260506160051 -17 227 1.6 12.9 0.00 0.00 0.00 1014.8
20260506154606 -17 220 4.8 14.5 0.00 0.00 0.00 1014.8
20260506153050 -17 202 4.8 17.7 0.00 0.00 0.00 1014.8
20260506151538 -17 244 8.0 19.3 0.00 0.00 0.00 1014.8
20260506150034 -17 228 1.6 16.1 0.00 0.00 0.00 1014.9
20260506144529 -17 254 4.8 14.5 0.00 0.00 0.00 1015.0
20260506143030 -17 292 6.4 19.3 0.00 0.00 0.00 1015.0
20260506141520 -17 228 6.4 12.9 0.00 0.00 0.00 1015.0
20260506140016 -17 290 4.8 16.1 0.00 0.00 0.00 1015.0
20260506134511 -17 238 1.6 14.5 0.00 0.00 0.00 1015.1
20260506133008 -17 236 6.4 16.1 0.00 0.00 0.00 1015.1
20260506131502 -17 243 0.0 17.7 0.00 0.00 0.00 1015.2
20260506130100 -17 249 1.6 17.7 0.00 0.00 0.00 1015.2
20260506124554 -17 267 1.6 16.1 0.00 0.00 0.00 1015.2
20260506123050 -17 262 0.0 17.7 0.00 0.00 0.00 1015.3
20260506120029 -17 259 6.4 16.1 0.00 0.00 0.00 1015.4
20260506114531 -17 218 3.2 16.1 0.00 0.00 0.00 1015.4
20260506113019 -17 209 3.2 14.5 0.00 0.00 0.00 1015.3
20260506111515 -17 257 6.4 17.7 0.00 0.00 0.00 1015.4
20260506110010 -17 241 9.7 20.9 0.00 0.00 0.00 1015.4
20260506104506 -17 235 4.8 16.1 0.00 0.00 0.00 1015.3
20260506103002 -17 296 1.6 9.7 0.00 0.00 0.00 1015.2
20260506101605 -17 225 3.2 16.1 0.00 0.00 0.00 1015.2
20260506100053 -17 267 1.6 12.9 0.00 0.00 0.00 1015.3
20260506094607 -17 224 1.6 14.5 0.00 0.00 0.00 1015.4
20260506093052 -17 246 4.8 17.7 0.00 0.00 0.00 1015.4
20260506091541 -17 257 0.0 8.0 0.00 0.00 0.00 1015.3
20260506090035 -17 147 0.0 9.7 0.00 0.00 0.00 1015.3
20260506084531 -17 221 0.0 8.0 0.00 0.00 0.00 1015.3
20260506083027 -17 248 4.8 14.5 0.00 0.00 0.00 1015.3
20260506081523 -17 258 3.2 20.9 0.00 0.00 0.00 1015.2
20260506073011 -17 360 4.8 12.9 0.00 0.00 0.00 1015.2
20260506071506 -17 17 3.2 14.5 0.00 0.00 0.00 1015.2
20260506061549 -17 46 0.0 6.4 0.00 0.00 0.00 1015.1
20260506044530 -17 306 0.0 0.0 0.00 0.00 0.00 1014.8
20260506043018 -17 306 0.0 0.0 0.00 0.00 0.00 1014.9
20260506041517 -17 306 0.0 0.0 0.00 0.00 0.00 1014.9
20260506040032 -17 306 0.0 0.0 0.00 0.00 0.00 1014.8
20260506034504 -17 306 0.0 0.0 0.00 0.00 0.00 1014.7
20260506033100 -17 306 0.0 0.0 0.00 0.00 0.00 1014.8
20260506031604 -17 306 0.0 0.0 0.00 0.00 0.00 1014.7
20260506030052 -17 244 0.0 0.0 0.00 0.00 0.00 1014.7
20260506024547 -17 244 0.0 0.0 0.00 0.00 0.00 1014.7
20260506023044 -17 244 0.0 0.0 0.00 0.00 0.00 1014.8
20260506021539 -17 244 0.0 0.0 0.00 0.00 0.00 1014.8
20260506020034 -17 244 0.0 0.0 0.00 0.00 0.00 1014.9
20260506014532 -17 244 0.0 0.0 0.00 0.00 0.00 1014.9
20260506013026 -17 244 0.0 0.0 0.00 0.00 0.00 1014.8
20260506011523 -17 244 0.0 0.0 0.00 0.00 0.00 1014.7
20260506010016 -17 244 0.0 0.0 0.00 0.00 0.00 1014.9
20260506004522 -17 244 0.0 0.0 0.00 0.00 0.00 1014.8
20260506003010 -17 244 0.0 0.0 0.00 0.00 0.00 1015.0
20260506001503 -17 244 0.0 0.0 0.00 0.00 0.00 1014.9
20260505234601 -17 244 0.0 0.0 0.00 0.00 0.00 1014.9
20260505233102 -17 244 0.0 0.0 0.00 0.00 0.00 1014.9
20260505231552 -17 244 0.0 0.0 0.00 0.00 0.00 1014.9
20260505230041 -17 244 0.0 0.0 0.00 0.00 0.00 1014.8
20260505224537 -17 244 0.0 0.0 0.00 0.00 0.00 1015.0
20260505223036 -17 244 0.0 0.0 0.00 0.00 0.00 1015.0
20260505221528 -17 244 0.0 0.0 0.00 0.00 0.00 1014.9
20260505220023 -17 244 0.0 0.0 0.00 0.00 0.00 1014.9
20260505214522 -17 243 0.0 0.0 0.00 0.00 0.00 1014.8
20260505213014 -17 226 0.0 0.0 0.00 0.00 0.00 1014.9
20260505211511 -17 226 0.0 0.0 0.00 0.00 0.00 1015.0
20260505210006 -17 226 0.0 0.0 0.00 0.00 0.00 1015.0
20260505204502 -17 226 0.0 0.0 0.00 0.00 0.00 1014.9
20260505203059 -17 226 0.0 0.0 0.00 0.00 0.00 1014.9
20260505201558 -17 232 1.6 8.0 0.00 0.00 0.00 1014.8
20260505200050 -17 233 1.6 9.7 0.00 0.00 0.00 1014.8
20260505194551 -17 244 0.0 6.4 0.00 0.00 0.00 1014.7
20260505193040 -17 259 1.6 9.7 0.00 0.00 0.00 1014.7